Time,TemperatureF,DewpointF,PressureIn,WindDirection,WindDirectionDegrees,WindSpeedMPH,WindSpeedGustMPH,Humidity,HourlyPrecipIn,Conditions,Clouds,dailyrainin,SoftwareType,DateUTC
2013-05-02 00:01:00,72.6,62.3,29.91,NE,53,4.0,15.0,70,0.00,,,0.00,Wunderground v.1.15,2013-05-02 05:01:00,
2013-05-02 00:10:00,72.2,62.3,29.92,ENE,58,3.0,3.0,71,0.00,,,0.00,Wunderground v.1.15,2013-05-02 05:10:00,
2013-05-02 00:15:00,72.1,62.2,29.93,NE,55,2.0,5.0,71,0.00,,,0.00,Wunderground v.1.15,2013-05-02 05:15:00,
2013-05-02 00:20:00,71.9,62.4,29.94,NE,43,2.0,12.0,72,0.00,,,0.00,Wunderground v.1.15,2013-05-02 05:20:00,
2013-05-02 00:25:00,71.8,62.3,29.95,NE,42,2.0,12.0,72,0.00,,,0.00,Wunderground v.1.15,2013-05-02 05:25:00,
2013-05-02 00:35:00,71.5,62.4,29.94,ENE,68,2.0,12.0,73,0.00,,,0.00,Wunderground v.1.15,2013-05-02 05:35:00,
2013-05-02 00:40:00,71.4,62.3,29.95,ENE,76,1.0,1.0,73,0.00,,,0.00,Wunderground v.1.15,2013-05-02 05:40:00,
2013-05-02 00:45:00,71.3,62.2,29.96,ENE,76,1.0,12.0,73,0.00,,,0.00,Wunderground v.1.15,2013-05-02 05:45:00,
2013-05-02 00:50:00,71.2,62.5,29.96,ENE,76,0.0,12.0,74,0.00,,,0.00,Wunderground v.1.15,2013-05-02 05:50:00,
2013-05-02 01:00:00,71.1,62.4,29.96,ENE,70,1.0,1.0,74,0.00,,,0.00,Wunderground v.1.15,2013-05-02 06:00:00,
2013-05-02 01:05:00,71.0,62.3,29.96,NNE,20,2.0,2.0,74,0.00,,,0.00,Wunderground v.1.15,2013-05-02 06:05:00,
2013-05-02 01:10:00,70.7,62.0,29.96,NE,46,3.0,3.0,74,0.00,,,0.00,Wunderground v.1.15,2013-05-02 06:10:00,
2013-05-02 01:20:00,70.2,61.9,29.97,NNE,30,3.0,12.0,75,0.00,,,0.00,Wunderground v.1.15,2013-05-02 06:20:00,
2013-05-02 01:25:00,70.0,61.7,29.97,NNE,17,2.0,12.0,75,0.00,,,0.00,Wunderground v.1.15,2013-05-02 06:25:00,
2013-05-02 01:30:00,69.8,61.9,29.97,NNE,12,3.0,3.0,76,0.00,,,0.00,Wunderground v.1.15,2013-05-02 06:30:00,
2013-05-02 01:35:00,69.6,61.7,29.97,NNE,22,3.0,12.0,76,0.00,,,0.00,Wunderground v.1.15,2013-05-02 06:35:00,
2013-05-02 01:45:00,69.3,61.8,29.96,NNE,15,1.0,7.0,77,0.00,,,0.00,Wunderground v.1.15,2013-05-02 06:45:00,
2013-05-02 01:50:00,69.0,61.5,29.96,NNE,18,4.0,12.0,77,0.00,,,0.00,Wunderground v.1.15,2013-05-02 06:50:00,
2013-05-02 01:55:00,68.9,61.8,29.96,NE,35,5.0,12.0,78,0.00,,,0.00,Wunderground v.1.15,2013-05-02 06:55:00,
2013-05-02 02:00:00,68.8,61.7,29.97,NNE,24,3.0,3.0,78,0.00,,,0.00,Wunderground v.1.15,2013-05-02 07:00:00,
2013-05-02 02:05:00,68.7,61.6,29.97,North,360,2.0,4.0,78,0.00,,,0.00,Wunderground v.1.15,2013-05-02 07:05:00,
2013-05-02 02:15:00,68.6,61.8,29.97,NNE,12,4.0,12.0,79,0.00,,,0.00,Wunderground v.1.15,2013-05-02 07:15:00,
2013-05-02 02:20:00,68.6,61.8,29.98,North,5,5.0,12.0,79,0.00,,,0.00,Wunderground v.1.15,2013-05-02 07:20:00,
2013-05-02 02:30:00,68.5,61.7,29.97,NNE,13,5.0,12.0,79,0.00,,,0.00,Wunderground v.1.15,2013-05-02 07:30:00,
2013-05-02 02:36:00,68.5,62.0,29.98,NNE,22,5.0,-999.0,79,-99.99,,,0.00,weatherlink.com 1.10,2013-05-02 07:36:00,
2013-05-02 02:45:00,68.5,61.7,29.97,NNE,33,4.0,4.0,79,0.00,,,0.00,Wunderground v.1.15,2013-05-02 07:45:00,
2013-05-02 02:54:00,68.4,61.6,29.97,North,5,5.0,7.0,79,0.00,,,0.00,Wunderground v.1.15,2013-05-02 07:54:00,
2013-05-02 02:59:00,68.3,61.5,29.97,North,9,5.0,12.0,79,0.00,,,0.00,Wunderground v.1.15,2013-05-02 07:59:00,
2013-05-02 03:09:00,68.1,61.3,29.97,North,360,6.0,6.0,79,0.00,,,0.00,Wunderground v.1.15,2013-05-02 08:09:00,
2013-05-02 03:14:00,67.9,61.1,29.97,NNE,15,5.0,12.0,79,0.00,,,0.00,Wunderground v.1.15,2013-05-02 08:14:00,
2013-05-02 03:19:00,67.8,61.0,29.97,North,360,5.0,12.0,79,0.00,,,0.00,Wunderground v.1.15,2013-05-02 08:19:00,
2013-05-02 03:29:00,65.8,55.7,29.99,NW,310,8.0,12.0,70,0.00,,,0.00,Wunderground v.1.15,2013-05-02 08:29:00,
2013-05-02 03:34:00,63.9,53.9,29.99,North,350,10.0,12.0,70,0.00,,,0.00,Wunderground v.1.15,2013-05-02 08:34:00,
2013-05-02 03:39:00,62.5,52.6,29.99,North,355,11.0,14.0,70,0.00,,,0.00,Wunderground v.1.15,2013-05-02 08:39:00,
2013-05-02 03:49:00,61.0,51.9,30.00,NNW,346,9.0,9.0,72,0.00,,,0.00,Wunderground v.1.15,2013-05-02 08:49:00,
2013-05-02 03:54:00,60.7,51.6,30.01,NW,321,8.0,12.0,72,0.00,,,0.00,Wunderground v.1.15,2013-05-02 08:54:00,
2013-05-02 04:04:00,59.8,50.4,30.02,NW,315,9.0,12.0,71,0.00,,,0.00,Wunderground v.1.15,2013-05-02 09:04:00,
2013-05-02 04:09:00,59.4,50.0,30.02,NW,321,12.0,-999.0,72,-99.99,,,0.00,weatherlink.com 1.10,2013-05-02 09:09:00,
2013-05-02 04:19:00,59.1,49.7,30.03,NNW,328,8.0,19.0,71,0.00,,,0.00,Wunderground v.1.15,2013-05-02 09:19:00,
2013-05-02 04:29:00,58.1,48.7,30.03,NW,325,12.0,12.0,71,0.00,,,0.00,Wunderground v.1.15,2013-05-02 09:29:00,
2013-05-02 04:34:00,57.7,48.4,30.03,NW,304,11.0,12.0,71,0.00,,,0.00,Wunderground v.1.15,2013-05-02 09:34:00,
2013-05-02 04:39:00,57.3,48.0,30.04,WNW,298,10.0,12.0,71,0.00,,,0.00,Wunderground v.1.15,2013-05-02 09:39:00,
2013-05-02 04:49:00,56.2,47.3,30.05,NNW,332,11.0,11.0,72,0.00,,,0.00,Wunderground v.1.15,2013-05-02 09:49:00,
2013-05-02 04:59:00,55.4,46.5,30.06,NW,312,9.0,9.0,72,0.00,,,0.00,Wunderground v.1.15,2013-05-02 09:59:00,
2013-05-02 05:04:00,54.8,45.9,30.06,NW,315,9.0,12.0,72,0.00,,,0.00,Wunderground v.1.15,2013-05-02 10:04:00,
2013-05-02 05:09:00,54.4,45.9,30.06,NW,314,9.0,9.0,73,0.00,,,0.00,Wunderground v.1.15,2013-05-02 10:09:00,
2013-05-02 05:14:00,54.4,46.3,30.07,NNW,344,7.0,13.0,74,0.00,,,0.00,Wunderground v.1.15,2013-05-02 10:14:00,
2013-05-02 05:24:00,53.9,45.4,30.08,WNW,287,8.0,14.0,73,0.00,,,0.00,Wunderground v.1.15,2013-05-02 10:24:00,
2013-05-02 05:29:00,53.5,45.4,30.08,NW,320,10.0,10.0,74,0.00,,,0.00,Wunderground v.1.15,2013-05-02 10:29:00,
2013-05-02 05:34:00,53.4,45.3,30.08,NW,319,9.0,12.0,74,0.00,,,0.00,Wunderground v.1.15,2013-05-02 10:34:00,
2013-05-02 05:39:00,53.1,44.7,30.08,NNW,338,7.0,12.0,73,0.00,,,0.00,Wunderground v.1.15,2013-05-02 10:39:00,
2013-05-02 05:49:00,52.2,44.5,30.09,WNW,290,10.0,12.0,75,0.00,,,0.00,Wunderground v.1.15,2013-05-02 10:49:00,
2013-05-02 05:59:00,52.0,44.3,30.10,NW,324,7.0,7.0,75,0.00,,,0.00,Wunderground v.1.15,2013-05-02 10:59:00,
2013-05-02 06:04:00,52.0,44.3,30.10,NNW,328,6.0,9.0,75,0.00,,,0.00,Wunderground v.1.15,2013-05-02 11:04:00,
2013-05-02 06:09:00,51.9,44.6,30.11,NNW,337,7.0,7.0,76,0.00,,,0.00,Wunderground v.1.15,2013-05-02 11:09:00,
2013-05-02 06:19:00,50.9,43.9,30.11,NNW,327,7.0,7.0,77,0.00,,,0.00,Wunderground v.1.15,2013-05-02 11:19:00,
2013-05-02 06:24:00,50.5,43.9,30.11,NNW,344,8.0,9.0,78,0.00,,,0.00,Wunderground v.1.15,2013-05-02 11:24:00,
2013-05-02 06:29:00,50.4,43.8,30.12,NNW,343,9.0,9.0,78,0.00,,,0.00,Wunderground v.1.15,2013-05-02 11:29:00,
2013-05-02 06:34:00,50.4,43.5,30.12,North,360,9.0,12.0,77,0.00,,,0.00,Wunderground v.1.15,2013-05-02 11:34:00,
2013-05-02 06:39:00,50.3,43.0,30.12,NNW,346,10.0,12.0,76,0.00,,,0.00,Wunderground v.1.15,2013-05-02 11:39:00,
2013-05-02 06:49:00,50.4,42.8,30.13,NW,306,10.0,12.0,75,0.00,,,0.00,Wunderground v.1.15,2013-05-02 11:49:00,
2013-05-02 06:54:00,50.4,42.8,30.13,NNW,342,9.0,13.0,75,0.00,,,0.00,Wunderground v.1.15,2013-05-02 11:54:00,
2013-05-02 06:59:00,50.3,42.3,30.13,NW,315,9.0,9.0,74,0.00,,,0.00,Wunderground v.1.15,2013-05-02 11:59:00,
2013-05-02 07:04:00,50.3,42.3,30.14,NW,313,8.0,13.0,74,0.00,,,0.00,Wunderground v.1.15,2013-05-02 12:04:00,
2013-05-02 07:14:00,50.2,42.2,30.15,NNW,335,10.0,14.0,74,0.00,,,0.00,Wunderground v.1.15,2013-05-02 12:14:00,
2013-05-02 07:19:00,49.9,41.9,30.15,NW,316,10.0,10.0,74,0.00,,,0.00,Wunderground v.1.15,2013-05-02 12:19:00,
2013-05-02 07:29:00,49.7,42.1,30.15,NW,308,10.0,10.0,75,0.00,,,0.00,Wunderground v.1.15,2013-05-02 12:29:00,
2013-05-02 07:39:00,49.6,42.0,30.16,NNW,327,8.0,12.0,75,0.00,,,0.00,Wunderground v.1.15,2013-05-02 12:39:00,
2013-05-02 07:44:00,49.5,41.9,30.16,NNW,348,7.0,12.0,75,0.00,,,0.00,Wunderground v.1.15,2013-05-02 12:44:00,
2013-05-02 07:49:00,49.4,41.5,30.16,NW,304,8.0,20.0,74,0.00,,,0.00,Wunderground v.1.15,2013-05-02 12:49:00,
2013-05-02 07:54:00,49.4,41.5,30.16,NW,318,11.0,20.0,74,0.00,,,0.00,Wunderground v.1.15,2013-05-02 12:54:00,
2013-05-02 08:04:00,49.6,41.7,30.16,NNW,328,8.0,12.0,74,0.00,,,0.00,Wunderground v.1.15,2013-05-02 13:04:00,
2013-05-02 08:09:00,49.7,41.4,30.16,NW,306,8.0,16.0,73,0.00,,,0.00,Wunderground v.1.15,2013-05-02 13:09:00,
2013-05-02 08:14:00,49.6,41.3,30.16,NW,310,11.0,16.0,73,0.00,,,0.00,Wunderground v.1.15,2013-05-02 13:14:00,
2013-05-02 08:19:00,49.6,41.3,30.16,NNW,329,11.0,15.0,73,0.00,,,0.00,Wunderground v.1.15,2013-05-02 13:19:00,
2013-05-02 08:24:00,49.6,41.3,30.17,NW,311,9.0,15.0,73,0.00,,,0.00,Wunderground v.1.15,2013-05-02 13:24:00,
2013-05-02 08:34:00,49.8,41.5,30.17,North,360,7.0,12.0,73,0.00,,,0.00,Wunderground v.1.15,2013-05-02 13:34:00,
2013-05-02 08:39:00,49.7,41.4,30.17,NNW,342,7.0,12.0,73,0.00,,,0.00,Wunderground v.1.15,2013-05-02 13:39:00,
2013-05-02 08:44:00,49.7,41.4,30.18,NNW,340,8.0,13.0,73,0.00,,,0.00,Wunderground v.1.15,2013-05-02 13:44:00,
2013-05-02 08:49:00,49.5,41.2,30.18,NNW,338,8.0,8.0,73,0.00,,,0.00,Wunderground v.1.15,2013-05-02 13:49:00,
2013-05-02 08:59:00,49.1,40.8,30.19,North,5,9.0,9.0,73,0.00,,,0.00,Wunderground v.1.15,2013-05-02 13:59:00,
2013-05-02 09:04:00,48.8,40.9,30.19,North,350,11.0,11.0,74,0.00,,,0.00,Wunderground v.1.15,2013-05-02 14:04:00,
2013-05-02 09:09:00,49.0,41.1,30.19,NW,319,9.0,12.0,74,0.00,,,0.00,Wunderground v.1.15,2013-05-02 14:09:00,
2013-05-02 09:14:00,49.0,41.1,30.19,NW,315,9.0,12.0,74,0.00,,,0.00,Wunderground v.1.15,2013-05-02 14:14:00,
2013-05-02 09:24:00,48.8,40.9,30.19,North,350,11.0,12.0,74,0.00,,,0.00,Wunderground v.1.15,2013-05-02 14:24:00,
2013-05-02 09:29:00,48.8,40.9,30.19,NW,311,9.0,9.0,74,0.00,,,0.00,Wunderground v.1.15,2013-05-02 14:29:00,
2013-05-02 09:34:00,48.8,40.9,30.19,NW,306,9.0,12.0,74,0.00,,,0.00,Wunderground v.1.15,2013-05-02 14:34:00,
2013-05-02 09:44:00,48.9,40.6,30.19,North,355,10.0,15.0,73,0.00,,,0.00,Wunderground v.1.15,2013-05-02 14:44:00,
2013-05-02 09:49:00,49.1,40.8,30.19,NNW,338,9.0,12.0,73,0.00,,,0.00,Wunderground v.1.15,2013-05-02 14:49:00,
2013-05-02 09:54:00,49.2,40.9,30.20,NW,320,8.0,12.0,73,0.00,,,0.00,Wunderground v.1.15,2013-05-02 14:54:00,
2013-05-02 10:04:00,49.0,40.7,30.21,North,355,10.0,11.0,73,0.00,,,0.00,Wunderground v.1.15,2013-05-02 15:04:00,
2013-05-02 10:09:00,49.0,40.7,30.20,NW,312,10.0,10.0,73,0.00,,,0.00,Wunderground v.1.15,2013-05-02 15:09:00,
2013-05-02 10:14:00,49.1,40.5,30.20,NNW,341,10.0,12.0,72,0.00,,,0.00,Wunderground v.1.15,2013-05-02 15:14:00,
2013-05-02 10:24:00,49.4,40.7,30.21,North,350,7.0,12.0,72,0.00,,,0.00,Wunderground v.1.15,2013-05-02 15:24:00,
2013-05-02 10:29:00,49.6,40.9,30.21,NNW,348,7.0,14.0,72,0.00,,,0.00,Wunderground v.1.15,2013-05-02 15:29:00,
2013-05-02 10:34:00,49.6,40.9,30.21,NW,324,8.0,14.0,72,0.00,,,0.00,Wunderground v.1.15,2013-05-02 15:34:00,
2013-05-02 10:44:00,49.6,40.9,30.22,NNW,344,9.0,14.0,72,0.00,,,0.00,Wunderground v.1.15,2013-05-02 15:44:00,
2013-05-02 10:49:00,49.5,40.5,30.22,NW,323,10.0,12.0,71,0.00,,,0.00,Wunderground v.1.15,2013-05-02 15:49:00,
2013-05-02 10:54:00,49.5,40.5,30.22,NNW,344,9.0,12.0,71,0.00,,,0.00,Wunderground v.1.15,2013-05-02 15:54:00,
2013-05-02 11:04:00,49.5,40.5,30.22,NW,309,9.0,17.0,71,0.00,,,0.00,Wunderground v.1.15,2013-05-02 16:04:00,
2013-05-02 11:14:00,49.4,40.7,30.23,NW,326,10.0,13.0,72,0.00,,,0.00,Wunderground v.1.15,2013-05-02 16:14:00,
2013-05-02 11:19:00,49.5,40.8,30.23,NW,313,9.0,19.0,72,0.00,,,0.00,Wunderground v.1.15,2013-05-02 16:19:00,
2013-05-02 11:24:00,49.5,40.8,30.23,NW,326,10.0,19.0,72,0.00,,,0.00,Wunderground v.1.15,2013-05-02 16:24:00,
2013-05-02 11:29:00,49.6,40.6,30.23,NW,314,10.0,14.0,71,0.00,,,0.00,Wunderground v.1.15,2013-05-02 16:29:00,
2013-05-02 11:34:00,49.7,40.7,30.23,NW,317,10.0,14.0,71,0.00,,,0.00,Wunderground v.1.15,2013-05-02 16:34:00,
2013-05-02 11:44:00,49.8,40.8,30.24,NW,308,9.0,16.0,71,0.00,,,0.00,Wunderground v.1.15,2013-05-02 16:44:00,
2013-05-02 11:54:00,50.1,41.1,30.24,NW,319,9.0,12.0,71,0.00,,,0.00,Wunderground v.1.15,2013-05-02 16:54:00,
2013-05-02 11:59:00,50.0,40.6,30.24,NNW,333,10.0,10.0,70,0.00,,,0.00,Wunderground v.1.15,2013-05-02 16:59:00,
2013-05-02 12:04:00,50.1,40.7,30.25,NW,313,11.0,11.0,70,0.00,,,0.00,Wunderground v.1.15,2013-05-02 17:04:00,
2013-05-02 12:14:00,50.0,40.6,30.25,NNW,340,10.0,12.0,70,0.00,,,0.00,Wunderground v.1.15,2013-05-02 17:14:00,
2013-05-02 12:19:00,50.1,40.7,30.25,North,355,9.0,13.0,70,0.00,,,0.00,Wunderground v.1.15,2013-05-02 17:19:00,
2013-05-02 12:24:00,49.9,40.9,30.25,NW,310,11.0,13.0,71,0.00,,,0.00,Wunderground v.1.15,2013-05-02 17:24:00,
2013-05-02 12:29:00,49.9,40.9,30.25,North,355,11.0,11.0,71,0.00,,,0.00,Wunderground v.1.15,2013-05-02 17:29:00,
2013-05-02 12:39:00,49.9,40.9,30.25,NW,323,9.0,9.0,71,0.00,,,0.00,Wunderground v.1.15,2013-05-02 17:39:00,
2013-05-02 12:44:00,49.9,40.5,30.25,NW,315,8.0,12.0,70,0.00,,,0.00,Wunderground v.1.15,2013-05-02 17:44:00,
2013-05-02 12:49:00,49.6,40.2,30.25,NNW,338,10.0,10.0,70,0.00,,,0.00,Wunderground v.1.15,2013-05-02 17:49:00,
2013-05-02 12:54:00,49.6,40.2,30.25,NW,314,9.0,12.0,70,0.00,,,0.00,Wunderground v.1.15,2013-05-02 17:54:00,
2013-05-02 12:59:00,49.7,40.3,30.25,NW,319,8.0,12.0,70,0.00,,,0.00,Wunderground v.1.15,2013-05-02 17:59:00,
2013-05-02 13:04:00,49.6,39.8,30.25,NNW,327,9.0,12.0,69,0.00,,,0.00,Wunderground v.1.15,2013-05-02 18:04:00,
2013-05-02 13:09:00,49.4,39.7,30.25,NW,308,9.0,9.0,69,0.00,,,0.00,Wunderground v.1.15,2013-05-02 18:09:00,
2013-05-02 13:19:00,49.4,39.3,30.25,NW,317,10.0,15.0,68,0.00,,,0.00,Wunderground v.1.15,2013-05-02 18:19:00,
2013-05-02 13:24:00,49.3,39.6,30.26,NW,315,11.0,15.0,69,0.00,,,0.00,Wunderground v.1.15,2013-05-02 18:24:00,
2013-05-02 13:34:00,48.8,39.1,30.26,NW,307,11.0,16.0,69,0.00,,,0.00,Wunderground v.1.15,2013-05-02 18:34:00,
2013-05-02 13:39:00,48.7,39.4,30.26,WNW,296,11.0,11.0,70,0.00,,,0.00,Wunderground v.1.15,2013-05-02 18:39:00,
2013-05-02 13:44:00,48.3,39.3,30.27,NW,310,11.0,12.0,71,0.00,,,0.00,Wunderground v.1.15,2013-05-02 18:44:00,
2013-05-02 13:54:00,48.0,39.4,30.27,NNW,338,10.0,14.0,72,0.00,,,0.00,Wunderground v.1.15,2013-05-02 18:54:00,
2013-05-02 13:59:00,47.8,38.8,30.27,North,355,10.0,12.0,71,0.00,,,0.00,Wunderground v.1.15,2013-05-02 18:59:00,
2013-05-02 14:04:00,47.5,38.6,30.27,NNW,333,12.0,18.0,71,0.00,,,0.00,Wunderground v.1.15,2013-05-02 19:04:00,
2013-05-02 14:14:00,47.4,38.5,30.28,NW,313,12.0,12.0,71,0.00,,,0.00,Wunderground v.1.15,2013-05-02 19:14:00,
2013-05-02 14:19:00,47.4,38.5,30.28,NW,317,11.0,11.0,71,0.00,,,0.00,Wunderground v.1.15,2013-05-02 19:19:00,
2013-05-02 14:24:00,47.4,38.5,30.28,WNW,292,10.0,15.0,71,0.00,,,0.00,Wunderground v.1.15,2013-05-02 19:24:00,
2013-05-02 14:34:00,47.1,38.2,30.28,NNW,336,11.0,12.0,71,0.00,,,0.00,Wunderground v.1.15,2013-05-02 19:34:00,
2013-05-02 14:39:00,47.1,38.2,30.28,NW,323,11.0,15.0,71,0.00,,,0.00,Wunderground v.1.15,2013-05-02 19:39:00,
2013-05-02 14:44:00,46.9,38.0,30.28,NW,304,12.0,15.0,71,0.00,,,0.00,Wunderground v.1.15,2013-05-02 19:44:00,
2013-05-02 14:54:00,46.9,38.3,30.28,NW,317,10.0,19.0,72,0.00,,,0.00,Wunderground v.1.15,2013-05-02 19:54:00,
2013-05-02 14:59:00,46.7,38.1,30.28,WNW,286,12.0,13.0,72,0.00,,,0.00,Wunderground v.1.15,2013-05-02 19:59:00,
2013-05-02 15:07:00,46.4,39.0,30.29,WNW,290,9.0,-999.0,76,-99.99,,,0.00,weatherlink.com 1.10,2013-05-02 20:07:00,
2013-05-02 15:14:00,46.3,38.5,30.28,WNW,296,12.0,19.0,74,0.00,,,0.00,Wunderground v.1.15,2013-05-02 20:14:00,
2013-05-02 15:19:00,46.3,38.5,30.28,NNW,336,12.0,13.0,74,0.00,,,0.00,Wunderground v.1.15,2013-05-02 20:19:00,
2013-05-02 15:29:00,46.3,38.8,30.29,NW,311,12.0,12.0,75,0.00,,,0.00,Wunderground v.1.15,2013-05-02 20:29:00,
2013-05-02 15:34:00,46.1,38.6,30.28,NNW,333,12.0,12.0,75,0.00,,,0.00,Wunderground v.1.15,2013-05-02 20:34:00,
2013-05-02 15:39:00,46.2,38.4,30.29,NW,321,12.0,12.0,74,0.00,,,0.00,Wunderground v.1.15,2013-05-02 20:39:00,
2013-05-02 15:44:00,46.4,38.6,30.29,North,355,11.0,18.0,74,0.00,,,0.00,Wunderground v.1.15,2013-05-02 20:44:00,
2013-05-02 15:54:00,46.3,38.5,30.28,North,5,11.0,16.0,74,0.00,,,0.00,Wunderground v.1.15,2013-05-02 20:54:00,
2013-05-02 15:59:00,46.3,38.8,30.29,NNW,346,12.0,12.0,75,0.00,,,0.00,Wunderground v.1.15,2013-05-02 20:59:00,
2013-05-02 16:09:00,46.0,38.9,30.29,NNW,329,13.0,13.0,76,0.00,,,0.00,Wunderground v.1.15,2013-05-02 21:09:00,
2013-05-02 16:14:00,45.9,38.8,30.28,NW,314,12.0,13.0,76,0.00,,,0.00,Wunderground v.1.15,2013-05-02 21:14:00,
2013-05-02 16:19:00,45.9,38.8,30.28,NW,325,11.0,16.0,76,0.00,,,0.00,Wunderground v.1.15,2013-05-02 21:19:00,
2013-05-02 16:29:00,45.5,38.7,30.29,NW,317,11.0,15.0,77,0.00,,,0.00,Wunderground v.1.15,2013-05-02 21:29:00,
2013-05-02 16:39:00,45.0,38.6,30.28,NW,309,13.0,16.0,78,0.00,,,0.00,Wunderground v.1.15,2013-05-02 21:39:00,
2013-05-02 16:45:00,45.1,39.0,30.29,NNW,332,17.0,-999.0,79,-99.99,,,0.00,weatherlink.com 1.10,2013-05-02 21:45:00,
2013-05-02 16:54:00,45.0,38.9,30.29,NNW,338,12.0,17.0,79,0.00,,,0.00,Wunderground v.1.15,2013-05-02 21:54:00,
2013-05-02 16:59:00,44.7,38.9,30.29,NNW,342,12.0,13.0,80,0.00,,,0.00,Wunderground v.1.15,2013-05-02 21:59:00,
2013-05-02 17:04:00,44.5,39.0,30.29,NW,311,12.0,13.0,81,0.00,,,0.00,Wunderground v.1.15,2013-05-02 22:04:00,
2013-05-02 17:14:00,43.8,39.3,30.30,NW,311,11.0,15.0,84,0.00,,,0.00,Wunderground v.1.15,2013-05-02 22:14:00,
2013-05-02 17:19:00,43.6,39.4,30.29,NW,325,10.0,10.0,85,0.00,,,0.00,Wunderground v.1.15,2013-05-02 22:19:00,
2013-05-02 17:24:00,43.6,39.4,30.30,NNW,333,10.0,12.0,85,0.00,,,0.00,Wunderground v.1.15,2013-05-02 22:24:00,
2013-05-02 17:29:00,43.7,39.8,30.30,NNW,327,9.0,9.0,86,0.00,,,0.00,Wunderground v.1.15,2013-05-02 22:29:00,
2013-05-02 17:39:00,43.7,39.8,30.29,NW,323,10.0,10.0,86,0.00,,,0.00,Wunderground v.1.15,2013-05-02 22:39:00,
2013-05-02 17:44:00,43.8,39.6,30.29,NW,320,8.0,12.0,85,0.00,,,0.00,Wunderground v.1.15,2013-05-02 22:44:00,
2013-05-02 17:54:00,43.8,39.3,30.30,NW,321,10.0,17.0,84,0.00,,,0.00,Wunderground v.1.15,2013-05-02 22:54:00,
2013-05-02 17:59:00,44.0,39.2,30.30,NW,320,12.0,12.0,83,0.00,,,0.00,Wunderground v.1.15,2013-05-02 22:59:00,
2013-05-02 18:04:00,44.1,39.0,30.30,NNW,329,11.0,15.0,82,0.00,,,0.00,Wunderground v.1.15,2013-05-02 23:04:00,
2013-05-02 18:09:00,44.2,38.4,30.30,NNW,346,11.0,11.0,80,0.00,,,0.00,Wunderground v.1.15,2013-05-02 23:09:00,
2013-05-02 18:19:00,44.2,38.4,30.30,North,360,10.0,10.0,80,0.00,,,0.00,Wunderground v.1.15,2013-05-02 23:19:00,
2013-05-02 18:24:00,44.1,38.6,30.30,North,5,10.0,12.0,81,0.00,,,0.00,Wunderground v.1.15,2013-05-02 23:24:00,
2013-05-02 18:29:00,44.1,38.0,30.30,NW,306,10.0,15.0,79,0.00,,,0.00,Wunderground v.1.15,2013-05-02 23:29:00,
2013-05-02 18:39:00,44.4,37.3,30.31,NW,318,12.0,12.0,76,0.00,,,0.00,Wunderground v.1.15,2013-05-02 23:39:00,
2013-05-02 18:44:00,44.5,37.4,30.31,North,355,12.0,12.0,76,0.00,,,0.00,Wunderground v.1.15,2013-05-02 23:44:00,
2013-05-02 18:49:00,44.5,37.4,30.31,North,351,11.0,11.0,76,0.00,,,0.00,Wunderground v.1.15,2013-05-02 23:49:00,
2013-05-02 18:59:00,44.5,37.4,30.31,NW,322,8.0,14.0,76,0.00,,,0.00,Wunderground v.1.15,2013-05-02 23:59:00,
2013-05-02 19:04:00,44.5,37.4,30.31,NW,316,9.0,14.0,76,0.00,,,0.00,Wunderground v.1.15,2013-05-03 00:04:00,
2013-05-02 19:09:00,44.4,37.3,30.31,NW,308,10.0,10.0,76,0.00,,,0.00,Wunderground v.1.15,2013-05-03 00:09:00,
2013-05-02 19:14:00,44.5,37.7,30.31,NW,311,9.0,12.0,77,0.00,,,0.00,Wunderground v.1.15,2013-05-03 00:14:00,
2013-05-02 19:24:00,44.3,37.2,30.31,NNW,332,11.0,18.0,76,0.00,,,0.00,Wunderground v.1.15,2013-05-03 00:24:00,
2013-05-02 19:29:00,44.4,37.3,30.31,NNW,337,11.0,11.0,76,0.00,,,0.00,Wunderground v.1.15,2013-05-03 00:29:00,
2013-05-02 19:34:00,44.5,37.1,30.31,North,5,10.0,12.0,75,0.00,,,0.00,Wunderground v.1.15,2013-05-03 00:34:00,
2013-05-02 19:44:00,44.6,36.8,30.32,NNE,22,10.0,12.0,74,0.00,,,0.00,Wunderground v.1.15,2013-05-03 00:44:00,
2013-05-02 19:49:00,44.7,36.9,30.32,NNE,14,9.0,12.0,74,0.00,,,0.00,Wunderground v.1.15,2013-05-03 00:49:00,
2013-05-02 19:54:00,44.7,36.9,30.32,NW,318,9.0,12.0,74,0.00,,,0.00,Wunderground v.1.15,2013-05-03 00:54:00,
2013-05-02 20:04:00,44.7,36.9,30.32,NNW,332,9.0,9.0,74,0.00,,,0.00,Wunderground v.1.15,2013-05-03 01:04:00,
2013-05-02 20:09:00,44.8,37.0,30.32,North,5,8.0,8.0,74,0.00,,,0.00,Wunderground v.1.15,2013-05-03 01:09:00,
2013-05-02 20:14:00,44.8,37.0,30.32,North,351,7.0,12.0,74,0.00,,,0.00,Wunderground v.1.15,2013-05-03 01:14:00,
2013-05-02 20:24:00,44.9,37.1,30.33,NNW,327,8.0,16.0,74,0.00,,,0.00,Wunderground v.1.15,2013-05-03 01:24:00,
2013-05-02 20:34:00,45.0,37.2,30.33,NNW,342,8.0,12.0,74,0.00,,,0.00,Wunderground v.1.15,2013-05-03 01:34:00,
2013-05-02 20:39:00,45.0,37.2,30.33,NNW,347,8.0,8.0,74,0.00,,,0.00,Wunderground v.1.15,2013-05-03 01:39:00,
2013-05-02 20:49:00,45.2,37.0,30.33,North,355,10.0,-999.0,73,-99.99,,,0.00,weatherlink.com 1.10,2013-05-03 01:49:00,
2013-05-02 20:54:00,45.4,36.9,30.33,NNW,342,8.0,14.0,72,0.00,,,0.00,Wunderground v.1.15,2013-05-03 01:54:00,
2013-05-02 20:59:00,45.6,36.7,30.33,North,360,9.0,12.0,71,0.00,,,0.00,Wunderground v.1.15,2013-05-03 01:59:00,
2013-05-02 21:04:00,45.7,36.5,30.33,NNW,343,10.0,12.0,70,0.00,,,0.00,Wunderground v.1.15,2013-05-03 02:04:00,
2013-05-02 21:09:00,45.7,36.5,30.34,NNW,329,10.0,15.0,70,0.00,,,0.00,Wunderground v.1.15,2013-05-03 02:09:00,
2013-05-02 21:19:00,45.8,36.6,30.34,NNW,343,10.0,10.0,70,0.00,,,0.00,Wunderground v.1.15,2013-05-03 02:19:00,
2013-05-02 21:24:00,45.7,36.5,30.33,NNW,341,9.0,12.0,70,0.00,,,0.00,Wunderground v.1.15,2013-05-03 02:24:00,
2013-05-02 21:29:00,45.6,36.4,30.34,North,360,7.0,12.0,70,0.00,,,0.00,Wunderground v.1.15,2013-05-03 02:29:00,
2013-05-02 21:34:00,45.6,36.7,30.33,NNW,338,6.0,12.0,71,0.00,,,0.00,Wunderground v.1.15,2013-05-03 02:34:00,
2013-05-02 21:44:00,45.4,36.5,30.34,NW,316,7.0,12.0,71,0.00,,,0.00,Wunderground v.1.15,2013-05-03 02:44:00,
2013-05-02 21:49:00,45.3,36.4,30.34,NW,323,6.0,12.0,71,0.00,,,0.00,Wunderground v.1.15,2013-05-03 02:49:00,
2013-05-02 21:54:00,45.2,36.7,30.34,North,355,6.0,12.0,72,0.00,,,0.00,Wunderground v.1.15,2013-05-03 02:54:00,
2013-05-02 21:59:00,45.1,36.6,30.34,North,5,6.0,6.0,72,0.00,,,0.00,Wunderground v.1.15,2013-05-03 02:59:00,
2013-05-02 22:09:00,44.9,36.8,30.34,NNW,342,5.0,5.0,73,0.00,,,0.00,Wunderground v.1.15,2013-05-03 03:09:00,
2013-05-02 22:14:00,44.7,36.6,30.34,NW,322,5.0,7.0,73,0.00,,,0.00,Wunderground v.1.15,2013-05-03 03:14:00,
2013-05-02 22:19:00,44.7,36.6,30.34,NW,311,5.0,12.0,73,0.00,,,0.00,Wunderground v.1.15,2013-05-03 03:19:00,
2013-05-02 22:24:00,44.6,36.5,30.34,NW,326,6.0,12.0,73,0.00,,,0.00,Wunderground v.1.15,2013-05-03 03:24:00,
2013-05-02 22:34:00,44.5,36.7,30.34,NW,319,5.0,12.0,74,0.00,,,0.00,Wunderground v.1.15,2013-05-03 03:34:00,
2013-05-02 22:39:00,44.5,36.7,30.33,NNW,338,5.0,12.0,74,0.00,,,0.00,Wunderground v.1.15,2013-05-03 03:39:00,
2013-05-02 22:44:00,44.7,36.6,30.34,NW,319,6.0,12.0,73,0.00,,,0.00,Wunderground v.1.15,2013-05-03 03:44:00,
2013-05-02 22:49:00,44.8,36.7,30.34,North,9,6.0,12.0,73,0.00,,,0.00,Wunderground v.1.15,2013-05-03 03:49:00,
2013-05-02 22:59:00,45.3,36.8,30.34,NW,312,6.0,12.0,72,0.00,,,0.00,Wunderground v.1.15,2013-05-03 03:59:00,
2013-05-02 23:04:00,45.5,36.6,30.34,North,351,6.0,12.0,71,0.00,,,0.00,Wunderground v.1.15,2013-05-03 04:04:00,
2013-05-02 23:09:00,45.7,36.5,30.34,North,5,7.0,13.0,70,0.00,,,0.00,Wunderground v.1.15,2013-05-03 04:09:00,
2013-05-02 23:19:00,46.0,35.7,30.34,NNE,15,9.0,9.0,67,0.00,,,0.00,Wunderground v.1.15,2013-05-03 04:19:00,
2013-05-02 23:24:00,46.0,35.7,30.34,NNW,340,8.0,12.0,67,0.00,,,0.00,Wunderground v.1.15,2013-05-03 04:24:00,
2013-05-02 23:29:00,45.9,35.2,30.34,North,355,8.0,12.0,66,0.00,,,0.00,Wunderground v.1.15,2013-05-03 04:29:00,
2013-05-02 23:34:00,45.7,35.0,30.34,NW,325,7.0,12.0,66,0.00,,,0.00,Wunderground v.1.15,2013-05-03 04:34:00,
2013-05-02 23:44:00,45.5,35.2,30.34,NW,314,7.0,12.0,67,0.00,,,0.00,Wunderground v.1.15,2013-05-03 04:44:00,
2013-05-02 23:49:00,45.3,35.0,30.34,NNW,338,6.0,12.0,67,0.00,,,0.00,Wunderground v.1.15,2013-05-03 04:49:00,
2013-05-02 23:54:00,45.1,34.8,30.34,NNW,329,6.0,12.0,67,0.00,,,0.00,Wunderground v.1.15,2013-05-03 04:54:00,
2013-05-02 23:59:00,44.9,35.0,30.33,NNW,343,6.0,-999.0,68,-99.99,,,0.00,weatherlink.com 1.10,2013-05-03 04:59:00,